ENY598 KLEX-KRDU

Flight info

Callsign ENY598
Flight time 0h 54m
Altitude 31000
Route HYK SITTR FRIKY ALDAN4
Aircraft E175/M-SDE3GILORVW/S

Departure

Time 2026-04-28 04:27
Airport Blue Grass Airport (KLEX)

Arrival

Time 2026-04-28 05:22
Airport Raleigh-Durham International Airport (KRDU)
Time Latitude Longitude Altitude Speed Heading
2026-04-28 04:24 38.02789 -84.61490 925 ft 0 kts 41°
2026-04-28 04:25 38.02789 -84.61489 925 ft 0 kts 41°
2026-04-28 04:26 38.02791 -84.61488 927 ft 0 kts 41°
2026-04-28 04:26 38.02792 -84.61486 927 ft 0 kts 41°
2026-04-28 04:27 38.02958 -84.61285 932 ft 73 kts 41°
2026-04-28 04:27 38.03556 -84.60630 954 ft 147 kts 45°
2026-04-28 04:27 38.04387 -84.59701 1567 ft 171 kts 49°
2026-04-28 04:27 38.05239 -84.58466 2085 ft 206 kts 72°
2026-04-28 04:28 38.05557 -84.56729 2935 ft 202 kts 107°
2026-04-28 04:28 38.05176 -84.55045 3809 ft 201 kts 136°
2026-04-28 04:28 38.04175 -84.53821 4745 ft 205 kts 163°
2026-04-28 04:28 38.02781 -84.53362 5699 ft 215 kts 188°
2026-04-28 04:29 38.01257 -84.53794 6501 ft 240 kts 209°
2026-04-28 04:29 37.99870 -84.55113 7161 ft 259 kts 229°
2026-04-28 04:29 37.98881 -84.57068 7895 ft 269 kts 237°
2026-04-28 04:29 37.97474 -84.58692 8590 ft 286 kts 210°
2026-04-28 04:30 37.95468 -84.59226 9299 ft 311 kts 184°
2026-04-28 04:30 37.93313 -84.58455 9970 ft 340 kts 159°
2026-04-28 04:30 37.91450 -84.56442 10581 ft 368 kts 134°
2026-04-28 04:30 37.90258 -84.53483 11186 ft 391 kts 111°
2026-04-28 04:31 37.89970 -84.49995 11810 ft 408 kts 89°
2026-04-28 04:31 37.90659 -84.46485 12517 ft 415 kts 69°
2026-04-28 04:31 37.91872 -84.43175 13306 ft 414 kts 64°
2026-04-28 04:31 37.93160 -84.39970 14030 ft 392 kts 63°
2026-04-28 04:32 37.93963 -84.38014 14454 ft 366 kts 62°
2026-04-28 04:32 37.95497 -84.34193 15380 ft 370 kts 69°
2026-04-28 04:32 37.96014 -84.31019 16075 ft 368 kts 93°
2026-04-28 04:32 37.95775 -84.27807 16826 ft 366 kts 102°
2026-04-28 04:33 37.95363 -84.24626 17588 ft 366 kts 103°
2026-04-28 04:33 37.94946 -84.21442 18357 ft 367 kts 102°
2026-04-28 04:33 37.94560 -84.18233 19050 ft 368 kts 101°
2026-04-28 04:33 37.94190 -84.15020 19750 ft 369 kts 101°
2026-04-28 04:34 37.93980 -84.12883 20230 ft 370 kts 97°
2026-04-28 04:34 37.93811 -84.09629 20952 ft 371 kts 95°
2026-04-28 04:34 37.93668 -84.06373 21691 ft 371 kts 94°
2026-04-28 04:34 37.93536 -84.03108 22449 ft 370 kts 94°
2026-04-28 04:35 37.93404 -83.99867 23215 ft 367 kts 94°
2026-04-28 04:35 37.93273 -83.96649 23923 ft 364 kts 94°
2026-04-28 04:35 37.93140 -83.93464 24585 ft 360 kts 94°
2026-04-28 04:35 37.93009 -83.90324 25261 ft 355 kts 93°
2026-04-28 04:36 37.92878 -83.87226 25946 ft 349 kts 93°
2026-04-28 04:36 37.92750 -83.84185 26642 ft 342 kts 93°
2026-04-28 04:36 37.92622 -83.81184 27157 ft 343 kts 93°
2026-04-28 04:36 37.92491 -83.78140 27478 ft 350 kts 93°
2026-04-28 04:37 37.92358 -83.75022 27789 ft 357 kts 93°
2026-04-28 04:37 37.92219 -83.71852 28117 ft 364 kts 93°
2026-04-28 04:37 37.92078 -83.68636 28449 ft 370 kts 93°
2026-04-28 04:37 37.91934 -83.65356 28788 ft 375 kts 93°
2026-04-28 04:38 37.91787 -83.62031 29127 ft 381 kts 93°
2026-04-28 04:38 37.91637 -83.58664 29479 ft 386 kts 93°
2026-04-28 04:38 37.91483 -83.55246 29816 ft 391 kts 93°
2026-04-28 04:38 37.91330 -83.51795 30158 ft 395 kts 94°
2026-04-28 04:39 37.91169 -83.48295 30454 ft 400 kts 94°
2026-04-28 04:39 37.91005 -83.44762 30747 ft 404 kts 94°
2026-04-28 04:39 37.90840 -83.41174 30949 ft 412 kts 93°
2026-04-28 04:39 37.90671 -83.37502 31026 ft 423 kts 93°
2026-04-28 04:40 37.90497 -83.33781 31063 ft 434 kts 93°
2026-04-28 04:40 37.90316 -83.29914 31076 ft 447 kts 94°
2026-04-28 04:40 37.90128 -83.25939 31086 ft 458 kts 94°
2026-04-28 04:40 37.89933 -83.21862 31096 ft 469 kts 94°
2026-04-28 04:41 37.89733 -83.17694 31095 ft 479 kts 94°
2026-04-28 04:41 37.89318 -83.09150 31080 ft 489 kts 93°
2026-04-28 04:42 37.88895 -83.00565 31054 ft 489 kts 93°
2026-04-28 04:42 37.88457 -82.91821 31081 ft 506 kts 93°
2026-04-28 04:43 37.87998 -82.82792 31092 ft 521 kts 94°
2026-04-28 04:43 37.87523 -82.73601 31109 ft 522 kts 93°
2026-04-28 04:44 37.87044 -82.64433 31122 ft 522 kts 93°
2026-04-28 04:44 37.86557 -82.55262 31116 ft 522 kts 94°
2026-04-28 04:45 37.86065 -82.46155 31064 ft 523 kts 94°
2026-04-28 04:45 37.85564 -82.36984 31076 ft 520 kts 93°
2026-04-28 04:46 37.85057 -82.27852 31064 ft 522 kts 94°
2026-04-28 04:46 37.84541 -82.18695 31085 ft 522 kts 94°
2026-04-28 04:47 37.84020 -82.09537 31081 ft 521 kts 94°
2026-04-28 04:47 37.83489 -82.00381 31101 ft 521 kts 93°
2026-04-28 04:48 37.82954 -81.91233 31092 ft 522 kts 94°
2026-04-28 04:48 37.82409 -81.82067 31104 ft 523 kts 94°
2026-04-28 04:49 37.81859 -81.72907 31123 ft 523 kts 94°
2026-04-28 04:49 37.81298 -81.63749 31101 ft 518 kts 94°
2026-04-28 04:50 37.80752 -81.54873 31057 ft 508 kts 94°
2026-04-28 04:50 37.80193 -81.45956 31105 ft 508 kts 94°
2026-04-28 04:51 37.79625 -81.37033 31129 ft 510 kts 94°
2026-04-28 04:51 37.79056 -81.28108 31153 ft 510 kts 94°
2026-04-28 04:52 37.78482 -81.19213 31163 ft 507 kts 94°
2026-04-28 04:52 37.77613 -81.10365 31158 ft 508 kts 104°
2026-04-28 04:53 37.74906 -81.02159 31162 ft 507 kts 122°
2026-04-28 04:53 37.71083 -80.94756 31154 ft 506 kts 126°
2026-04-28 04:54 37.67193 -80.87370 31168 ft 505 kts 121°
2026-04-28 04:54 37.63740 -80.79636 31176 ft 505 kts 120°
2026-04-28 04:55 37.60325 -80.71878 31202 ft 506 kts 120°
2026-04-28 04:55 37.56907 -80.64125 31192 ft 505 kts 120°
2026-04-28 04:56 37.53509 -80.56434 31077 ft 496 kts 120°
2026-04-28 04:56 37.51837 -80.52659 30888 ft 490 kts 120°
2026-04-28 04:56 37.50185 -80.48932 30694 ft 487 kts 120°
2026-04-28 04:56 37.48532 -80.45209 30520 ft 486 kts 121°
2026-04-28 04:57 37.46691 -80.41655 30326 ft 483 kts 128°
2026-04-28 04:57 37.44667 -80.38296 29990 ft 480 kts 128°
2026-04-28 04:57 37.42754 -80.34880 29529 ft 474 kts 127°
2026-04-28 04:57 37.40870 -80.31500 29081 ft 470 kts 126°
2026-04-28 04:58 37.39005 -80.28132 28646 ft 468 kts 126°
2026-04-28 04:58 37.37174 -80.24825 28202 ft 465 kts 126°
2026-04-28 04:58 37.35329 -80.21498 27770 ft 463 kts 126°
2026-04-28 04:58 37.33495 -80.18193 27345 ft 460 kts 126°
2026-04-28 04:59 37.31667 -80.14906 26936 ft 457 kts 126°
2026-04-28 04:59 37.29851 -80.11641 26512 ft 455 kts 126°
2026-04-28 04:59 37.28042 -80.08393 26096 ft 453 kts 126°
2026-04-28 04:59 37.26243 -80.05165 25692 ft 450 kts 126°
2026-04-28 05:00 37.24453 -80.01957 25295 ft 447 kts 126°
2026-04-28 05:00 37.22673 -79.98771 24908 ft 445 kts 126°
2026-04-28 05:00 37.20898 -79.95595 24521 ft 443 kts 126°
2026-04-28 05:00 37.19134 -79.92446 24140 ft 440 kts 126°
2026-04-28 05:01 37.17381 -79.89314 23747 ft 438 kts 126°
2026-04-28 05:01 37.15612 -79.86163 23334 ft 451 kts 126°
2026-04-28 05:01 37.13794 -79.82920 22958 ft 454 kts 126°
2026-04-28 05:01 37.11982 -79.79694 22581 ft 451 kts 126°
2026-04-28 05:02 37.10186 -79.76504 22201 ft 446 kts 126°
2026-04-28 05:02 37.08405 -79.73336 21823 ft 444 kts 126°
2026-04-28 05:02 37.06628 -79.70181 21443 ft 442 kts 126°
2026-04-28 05:02 37.04860 -79.67046 21073 ft 439 kts 126°
2026-04-28 05:03 37.03104 -79.63935 20707 ft 437 kts 126°
2026-04-28 05:03 37.01354 -79.60838 20341 ft 435 kts 126°
2026-04-28 05:03 36.99614 -79.57762 19988 ft 432 kts 126°
2026-04-28 05:03 36.97652 -79.54937 19588 ft 429 kts 139°
2026-04-28 05:04 36.95373 -79.52542 19169 ft 426 kts 142°
2026-04-28 05:04 36.93053 -79.50268 18762 ft 423 kts 143°
2026-04-28 05:04 36.90821 -79.47889 18324 ft 421 kts 139°
2026-04-28 05:04 36.88653 -79.45464 17856 ft 417 kts 139°
2026-04-28 05:05 36.86511 -79.43035 17387 ft 414 kts 139°
2026-04-28 05:05 36.84390 -79.40630 16940 ft 411 kts 138°
2026-04-28 05:05 36.82280 -79.38230 16491 ft 408 kts 139°
2026-04-28 05:05 36.80186 -79.35857 16049 ft 405 kts 139°
2026-04-28 05:06 36.78108 -79.33503 15616 ft 402 kts 139°
2026-04-28 05:06 36.76043 -79.31167 15285 ft 399 kts 139°
2026-04-28 05:06 36.74019 -79.28881 14985 ft 387 kts 139°
2026-04-28 05:06 36.72065 -79.26672 14705 ft 383 kts 139°
2026-04-28 05:07 36.70091 -79.24445 14424 ft 383 kts 139°
2026-04-28 05:07 36.68122 -79.22225 14150 ft 381 kts 139°
2026-04-28 05:07 36.66161 -79.20015 13850 ft 379 kts 139°
2026-04-28 05:07 36.64215 -79.17823 13542 ft 376 kts 139°
2026-04-28 05:08 36.62277 -79.15643 13320 ft 374 kts 139°
2026-04-28 05:08 36.60347 -79.13473 13094 ft 372 kts 139°
2026-04-28 05:08 36.58429 -79.11317 12870 ft 370 kts 139°
2026-04-28 05:08 36.56523 -79.09177 12644 ft 368 kts 140°
2026-04-28 05:09 36.54622 -79.07043 12412 ft 367 kts 140°
2026-04-28 05:09 36.52729 -79.04922 12190 ft 364 kts 140°
2026-04-28 05:09 36.50884 -79.02852 11953 ft 352 kts 140°
2026-04-28 05:09 36.49082 -79.00835 11724 ft 347 kts 140°
2026-04-28 05:10 36.47286 -78.98828 11505 ft 347 kts 140°
2026-04-28 05:10 36.45492 -78.96827 11291 ft 346 kts 141°
2026-04-28 05:10 36.43650 -78.94921 11081 ft 341 kts 142°
2026-04-28 05:10 36.41877 -78.93053 10854 ft 328 kts 142°
2026-04-28 05:11 36.40252 -78.91182 10618 ft 317 kts 139°
2026-04-28 05:11 36.38662 -78.89347 10386 ft 307 kts 140°
2026-04-28 05:11 36.37108 -78.87577 10113 ft 301 kts 140°
2026-04-28 05:11 36.35568 -78.85831 9714 ft 299 kts 140°
2026-04-28 05:12 36.33940 -78.84286 9321 ft 292 kts 155°
2026-04-28 05:12 36.32188 -78.83025 8943 ft 291 kts 145°
2026-04-28 05:12 36.30632 -78.81419 8573 ft 290 kts 140°
2026-04-28 05:12 36.29128 -78.79760 8209 ft 288 kts 141°
2026-04-28 05:13 36.27588 -78.78201 7902 ft 284 kts 142°
2026-04-28 05:13 36.26053 -78.76678 7614 ft 282 kts 143°
2026-04-28 05:13 36.24525 -78.75170 7324 ft 280 kts 142°
2026-04-28 05:13 36.23010 -78.73675 7066 ft 277 kts 142°
2026-04-28 05:14 36.21512 -78.72197 6826 ft 272 kts 142°
2026-04-28 05:14 36.20045 -78.70750 6572 ft 267 kts 142°
2026-04-28 05:14 36.18604 -78.69326 6312 ft 263 kts 142°
2026-04-28 05:14 36.17178 -78.67923 6051 ft 259 kts 141°
2026-04-28 05:15 36.15779 -78.66546 5801 ft 255 kts 141°
2026-04-28 05:15 36.14419 -78.65206 5548 ft 251 kts 141°
2026-04-28 05:15 36.13066 -78.63871 5300 ft 247 kts 141°
2026-04-28 05:15 36.11730 -78.62558 5047 ft 244 kts 141°
2026-04-28 05:16 36.10410 -78.61257 4791 ft 242 kts 141°
2026-04-28 05:16 36.09105 -78.59974 4523 ft 235 kts 140°
2026-04-28 05:16 36.07837 -78.58817 4385 ft 221 kts 150°
2026-04-28 05:17 36.04962 -78.58821 4318 ft 212 kts 210°
2026-04-28 05:17 36.03860 -78.59961 4318 ft 202 kts 223°
2026-04-28 05:17 36.02851 -78.61169 4060 ft 201 kts 220°
2026-04-28 05:17 36.01849 -78.62359 3827 ft 200 kts 222°
2026-04-28 05:18 36.00874 -78.63582 3598 ft 200 kts 223°
2026-04-28 05:18 35.99898 -78.64790 3346 ft 197 kts 222°
2026-04-28 05:18 35.98937 -78.65977 3091 ft 194 kts 222°
2026-04-28 05:18 35.97995 -78.67149 2841 ft 191 kts 222°
2026-04-28 05:19 35.97063 -78.68302 2602 ft 188 kts 222°
2026-04-28 05:19 35.96158 -78.69424 2365 ft 185 kts 222°
2026-04-28 05:19 35.95273 -78.70520 2122 ft 174 kts 221°
2026-04-28 05:19 35.94456 -78.71532 1914 ft 160 kts 221°
2026-04-28 05:20 35.93696 -78.72472 1658 ft 150 kts 220°
2026-04-28 05:20 35.92973 -78.73368 1472 ft 145 kts 221°
2026-04-28 05:20 35.92276 -78.74227 1263 ft 138 kts 220°
2026-04-28 05:20 35.91600 -78.75064 1057 ft 135 kts 222°
2026-04-28 05:21 35.90923 -78.75895 900 ft 139 kts 221°
2026-04-28 05:21 35.90234 -78.76754 681 ft 142 kts 221°
2026-04-28 05:21 35.89539 -78.77608 508 ft 140 kts 220°
2026-04-28 05:21 35.88880 -78.78408 424 ft 121 kts 222°
2026-04-28 05:22 35.88425 -78.78976 420 ft 56 kts 226°
2026-04-28 05:22 35.88294 -78.79065 423 ft 7 kts 174°
2026-04-28 05:22 35.88238 -78.79057 418 ft 9 kts 171°
2026-04-28 05:22 35.88166 -78.79043 418 ft 12 kts 175°
2026-04-28 05:23 35.88085 -78.79105 424 ft 15 kts 223°
2026-04-28 05:23 35.88000 -78.79185 419 ft 10 kts 182°
2026-04-28 05:23 35.87963 -78.79167 422 ft 3 kts 141°
2026-04-28 05:23 35.87959 -78.79163 424 ft 0 kts 141°